Tracking 18980 objects as of 21-Feb-2018
HD Live streaming from Space Station
objects crossing your sky now

FENGYUN 1C DEB

Track FENGYUN 1C DEB now!
10-day predictions


NORAD ID: 31213
Int'l Code: 1999-025BKT
Perigee: 775.6 km
Apogee: 821.9 km
Inclination: 99.5 °
Period: 100.7 minutes
Semi major axis: 7169 km
RCS: 0.0047 m2 (small)
Launch date: May 10, 1999
Source: People's Republic of China (PRC)
Launch site: Taiyaun Space Center, China (TSC)

Note: This is SATELLITE DEBRIS
aabbcc
Your satellite tracking list
Your tracking list is empty




NASA's NSSDC Master Catalog

Two Line Element Set (TLE):
1 31213U 99025BKT 18051.71567734 +.00002159 +00000-0 +85110-3 0  9995
2 31213 099.4630 331.0578 0032297 023.3129 336.9507 14.30040162562482
Source of the keplerian elements: AFSPC